Regional Weather Roundup
Issued by NWS Mt. Holly, NJ

Home | Current Version | Previous Version | Text Only | Print | Product List | Glossary On
Versions: 1 2 3 4 5 6 7 8 9 10 11 12 13 14 15 16 17 18 19 20 21 22 23 24 25 26 27 28 29 30 31 32 33 34 35 36 37 38 39 40 41 42 43 44 45 46 47 48 49 50
000
ASUS41 KPHI 231310
RWRPHI

REGIONAL WEATHER ROUNDUP
NATIONAL WEATHER SERVICE MOUNT HOLLY NJ
900 AM EDT SAT AUG 23 2014

NOTE:  "FAIR" INDICATES FEW OR NO CLOUDS BELOW 12,000 FEET WITH NO
SIGNIFICANT WEATHER AND/OR OBSTRUCTIONS TO VISIBILITY.

 * = STATION DOES NOT REPORT PRECIPITATION (E.G. RAIN, SNOW, ETC.)
        OR FOG.

NJZ015>026-231400-
SOUTHERN NEW JERSEY

CITY           SKY/WX    TMP DP  RH WIND       PRES   REMARKS
POMONA         MOSUNNY   71  64  78 E10       30.04R
RIO GRANDE*    CLOUDY    72  63  73 NE10      30.03S
MILLVILLE      MOSUNNY   71  64  78 E13       30.04S
WRIGHTSTOWN    LGT RAIN  68  64  88 NE5       30.04S
MOUNT HOLLY    LGT RAIN  67  63  87 N3        30.06S
TRENTON        PTSUNNY   67  63  87 NE6       30.06S

$$
NJZ001>014-231400-
NORTHERN NEW JERSEY

CITY           SKY/WX    TMP DP  RH WIND       PRES   REMARKS
SUSSEX         MOSUNNY   70  61  73 VRB6      30.09S
ANDOVER*         N/A     68  61  78 VRB3      30.10R
MORRISTOWN     PTSUNNY   70  64  83 E5        30.09S
NEWARK         PTSUNNY   72  62  71 NE7       30.08S
TETERBORO      CLOUDY    69  59  70 NE5       30.08R
CALDWELL       PTSUNNY   67  59  75 E6        30.09S
SOMERVILLE     PTSUNNY   69  61  75 MISG      30.06S
ALLAIRE*       PTSUNNY   70  61  73 E14       30.07R
TOMS RIVER*    PTSUNNY   72  63  73 E6G16     30.05F

$$
PAZ043-044-047-054-055-060>062-066>071-231400-
EASTERN PENNSYLVANIA

CITY           SKY/WX    TMP DP  RH WIND       PRES   REMARKS
PHILADELPHIA   PTSUNNY   70  63  78 E9G21     30.06R
NORTH PHILA    LGT RAIN  68  62  81 NE5       30.08S
BLUE BELL      CLOUDY    64  64 100 NE5       30.06S
DOYLESTOWN     LGT RAIN  63  63 100 CALM      30.07S
QUAKERTOWN*    CLOUDY    63  63 100 CALM      30.09S
POTTSTOWN      RAIN      64  62  93 NE5       30.09R FOG
LANCASTER      CLOUDY    67  62  84 E6        30.06S
COATESVILLE    CLOUDY    64  46  52 NE5       30.08R
READING        CLOUDY    66  62  87 E7        30.07R
ALLENTOWN      CLOUDY    65  60  84 NE6       30.09R
MOUNT POCONO   RAIN      60  58  92 SE6       30.12S FOG
HAZLETON       DRIZZLE   59  59 100 E8        30.13R
WILKES BARRE   LGT RAIN  63  58  83 CALM      30.10S

$$
DEZALL-MDZ008-012-015-019-020-231400-
DELAWARE AND EASTERN MARYLAND

CITY           SKY/WX    TMP DP  RH WIND       PRES   REMARKS
WILMINGTON     CLOUDY    70  63  78 E9        30.05S
DOVER          MOSUNNY   72  68  87 NE12      30.02R
GEORGETOWN     MOSUNNY   75  66  73 E14       30.02S
EASTON         MOSUNNY   73  72  94 E3        30.05S
PATUXENT       PTSUNNY   74  66  76 E12       30.00F
OCEAN CITY     SUNNY     75  66  73 E8        30.01R
WALLOPS ISLAND MOSUNNY   76  66  71 E15       30.00S
CAMBRIDGE      SUNNY     73  66  78 E6        30.00F
SALISBURY      SUNNY     75  66  73 NE7       30.01S

$$
PAZ001-021-NYZ056-072-MDZ011-DCZ001-231400-
OTHER NEARBY LOCATIONS

CITY           SKY/WX    TMP DP  RH WIND       PRES   REMARKS
HARRISBURG     CLOUDY    69  62  78 E9        30.05R
STATE COLLEGE  CLOUDY    64  63  94 E7        30.06R
WILLIAMSPORT   CLOUDY    66  61  84 E9        30.06R
BINGHAMTON     CLOUDY    63  59  87 SE7       30.10R
NEW YORK CITY  CLOUDY    69  59  70 NE8       30.11S
BALTIMORE      LGT RAIN  70  65  84 E12       30.03S
WASHINGTON DC  CLOUDY    74  65  73 E8        30.02F

$$


USA.gov is the U.S. government's official web portal to all federal, state and local government web resources and services.